SCP
0 0 0 0 0 0 -0 -0 -0 -0 -0 -0 -0 0 0 0 0 0 0 0 0 0
0 0 0 0 0 0 0 0 -0 -0 -0 -0 -0 0 0 0 0 0 0 0 0 0
0 0 0 0 0 0 0 -0 -0 -0 -0 -0 -0 -0 0 0 0 0 0 0 0 0
-0 -0 0 0 0 0 -0 -0 -0 -0 -0 -0 -0 -0 0 0 0 0 0 0 0 0
-0 -0 0 0 0 0 -0 -0 -0 -0 -0 -0 -0 0 0 0 0 0 0 0 0 0
-1 -0 -0 0 -0 0 -0 -0 -0 -0 -0 -0 -0 0 0 0 0 0 0 0 0 0
-1 -1 -0 -0 -0 0 0 0 -0 -0 -0 -0 -0 -0 0 0 0 0 0 0 0 0
-1 -0 0 -0 0 0 0 0 0 0 -0 -0 -0 0 0 0 0 0 0 0 0 0
0 0 0 0 0 0 1 1 1 0 0 -0 0 0 0 0 0 0 0 0 0 0
1 0 0 1 1 1 1 2 1 1 0 0 0 0 0 0 0 1 0 0 0 0
2 1 1 1 1 1 2 1 1 1 0 1 1 0 0 0 1 1 0 0 0 0
2 2 2 1 1 2 3 3 2 1 1 1 1 0 0 0 0 1 0 0 0 1
4 4 3 3 2 3 3 4 3 2 1 1 1 0 0 0 0 0 0 0 0 0
5 5 4 5 6 4 4 4 4 3 2 1 1 0 0 0 0 0 0 0 0 0
Wind_Speed_500mb
62 67 62 58 60 55 53 47 38 37 38 36 36 34 32 25 23 25 34 35 35 31
66 69 71 64 58 58 51 44 39 39 37 40 40 34 35 31 28 28 29 33 33 38
69 70 77 70 72 66 55 50 49 45 44 39 39 35 34 35 34 30 29 29 33 35
73 72 75 81 76 77 71 61 62 58 54 50 48 45 43 40 41 38 31 32 31 32
78 74 76 81 86 82 82 78 71 65 63 56 53 56 51 46 48 50 42 35 33 34
88 83 78 81 84 89 87 86 86 75 71 69 63 60 59 54 50 52 50 41 38 36
94 87 83 82 85 89 88 92 88 92 86 77 71 68 67 63 55 53 55 53 44 44
96 86 87 88 87 88 90 89 91 91 89 85 80 77 73 68 63 58 57 60 56 48
101 99 95 93 91 88 88 89 90 91 91 87 83 79 76 68 67 62 60 62 63 52
105 103 101 97 95 92 90 86 86 84 82 80 80 77 74 68 68 65 62 57 64 59
108 104 102 99 97 93 90 86 78 74 70 73 74 71 68 62 61 60 53 53 58 62
112 104 100 100 97 92 87 80 72 65 64 64 62 55 57 56 60 54 51 41 44 52
116 110 101 93 92 89 77 66 61 60 59 52 53 49 48 46 43 47 42 41 43 46
110 115 105 96 90 86 75 64 60 60 55 51 47 44 39 38 34 35 35 39 42 45
Wind_Direction_500mb
231 224 219 213 220 225 229 232 234 241 237 231 223 228 224 223 222 227 223 226 229 234
227 223 216 210 216 223 227 232 238 241 232 227 226 229 230 225 218 229 229 223 227 223
226 225 219 215 218 225 227 228 230 236 228 223 226 233 236 230 222 225 227 219 223 230
223 225 221 219 219 224 227 230 233 235 233 232 232 235 241 240 228 225 227 223 223 227
221 225 223 225 222 222 227 231 237 237 238 240 238 238 242 247 238 230 227 230 228 236
220 223 225 226 227 225 224 230 234 236 237 240 241 241 244 248 249 244 237 233 234 238
221 222 225 227 228 230 229 230 231 237 241 243 246 247 248 250 251 250 244 238 242 243
222 225 227 228 229 232 232 233 236 237 241 243 246 251 251 251 254 255 250 242 241 247
225 225 228 230 231 232 235 235 236 239 241 244 249 254 257 256 258 259 256 247 241 243
227 227 229 230 232 235 236 237 237 239 242 246 250 255 258 258 257 258 257 256 247 243
227 229 230 231 233 234 237 238 238 239 244 247 250 253 256 258 258 258 258 254 250 245
228 228 230 231 231 232 234 236 238 241 243 245 248 249 250 251 253 256 253 253 250 244
229 229 229 231 231 231 231 234 235 236 239 242 241 241 246 247 250 250 248 241 238 245
231 230 231 231 230 230 228 226 228 231 234 237 237 237 240 240 235 239 239 239 242 250
Wind_Speed_850mb
62 67 62 58 60 55 53 47 38 37 38 36 36 34 32 25 23 25 34 35 35 31
66 69 71 64 58 58 51 44 39 39 37 40 40 34 35 31 28 28 29 33 33 38
69 70 77 70 72 66 55 50 49 45 44 39 39 35 34 35 34 30 29 29 33 35
73 72 75 81 76 77 71 61 62 58 54 50 48 45 43 40 41 38 31 32 31 32
78 74 76 81 86 82 82 78 71 65 63 56 53 56 51 46 48 50 42 35 33 34
88 83 78 81 84 89 87 86 86 75 71 69 63 60 59 54 50 52 50 41 38 36
94 87 83 82 85 89 88 92 88 92 86 77 71 68 67 63 55 53 55 53 44 44
96 86 87 88 87 88 90 89 91 91 89 85 80 77 73 68 63 58 57 60 56 48
101 99 95 93 91 88 88 89 90 91 91 87 83 79 76 68 67 62 60 62 63 52
105 103 101 97 95 92 90 86 86 84 82 80 80 77 74 68 68 65 62 57 64 59
108 104 102 99 97 93 90 86 78 74 70 73 74 71 68 62 61 60 53 53 58 62
112 104 100 100 97 92 87 80 72 65 64 64 62 55 57 56 60 54 51 41 44 52
116 110 101 93 92 89 77 66 61 60 59 52 53 49 48 46 43 47 42 41 43 46
110 115 105 96 90 86 75 64 60 60 55 51 47 44 39 38 34 35 35 39 42 45
Wind_Direction_850mb
231 224 219 213 220 225 229 232 234 241 237 231 223 228 224 223 222 227 223 226 229 234
227 223 216 210 216 223 227 232 238 241 232 227 226 229 230 225 218 229 229 223 227 223
226 225 219 215 218 225 227 228 230 236 228 223 226 233 236 230 222 225 227 219 223 230
223 225 221 219 219 224 227 230 233 235 233 232 232 235 241 240 228 225 227 223 223 227
221 225 223 225 222 222 227 231 237 237 238 240 238 238 242 247 238 230 227 230 228 236
220 223 225 226 227 225 224 230 234 236 237 240 241 241 244 248 249 244 237 233 234 238
221 222 225 227 228 230 229 230 231 237 241 243 246 247 248 250 251 250 244 238 242 243
222 225 227 228 229 232 232 233 236 237 241 243 246 251 251 251 254 255 250 242 241 247
225 225 228 230 231 232 235 235 236 239 241 244 249 254 257 256 258 259 256 247 241 243
227 227 229 230 232 235 236 237 237 239 242 246 250 255 258 258 257 258 257 256 247 243
227 229 230 231 233 234 237 238 238 239 244 247 250 253 256 258 258 258 258 254 250 245
228 228 230 231 231 232 234 236 238 241 243 245 248 249 250 251 253 256 253 253 250 244
229 229 229 231 231 231 231 234 235 236 239 242 241 241 246 247 250 250 248 241 238 245
231 230 231 231 230 230 228 226 228 231 234 237 237 237 240 240 235 239 239 239 242 250